[[{"header":{"parameterUnit":"m.s-1","parameterCategory":2,"la1":30.2991,"la2":30.254,"lo1":-89.0895,"lo2":-89.0444,"dy":0.0017,"dx":0.0017,"nx":28,"ny":28,"refTime":"2024-07-03T09:00:00:Z","depth":"0","parameterNumber":2,"parameterNumberName":"U-component_of_CURRENTS"},"data":[0,0,0,0,0,0,0,0,0,0,0,0,0,0,0,0,0,0,0,0,0,0,0,0,0,0,0,0,0,0,0,0,0,0,0,0,0,0,0,0,0,0,0,0,0,0,0,0,0,0,0,0,0,0,0,0,0,0,0.0926,0.0928,0,0.1079,0.108,0.1082,0.1083,0.1081,0.1079,0.1078,0.1062,0.1063,0.1065,0,0,0,0,0,0,0,0,0,0,0,0,0,0.0749,0.0752,0.0926,0.0928,0.093,0.1078,0.108,0.1082,0.1084,0.1081,0.1079,0.1077,0.1062,0.1063,0.1065,0,0,0,0,0,0,0,0,0,0,0,0,0,0.0856,0.0753,0.0926,0.0949,0.0953,0.1078,0.1081,0.1083,0.1084,0.1081,0.1078,0.1076,0.1061,0.1063,0.1065,0.1134,0,0,0.1071,0.1072,0,0,0,0,0,0,0,0,0.0849,0.0862,0.0944,0.0948,0.0952,0.106,0.1013,0.1092,0.1085,0.1034,0.1078,0.1074,0.1048,0.1051,0.1088,0.1134,0.1133,0.1071,0.1073,0.1073,0.1074,0,0,0,0,0,0,0,0.0842,0.0856,0.0986,0.0946,0.0951,0.0991,0.1001,0.1029,0.1051,0.1038,0.1038,0.1057,0.1049,0.1086,0.1087,0.1133,0.1071,0.1073,0.1074,0.1075,0.152,0.153,0,0,0,0,0,0,0.0822,0.0849,0.0981,0.0991,0.0893,0.0996,0.1008,0.1027,0.1055,0.1058,0.106,0.1057,0.1084,0.1084,0.1086,0.1348,0.1073,0.1075,0.1076,0.1509,0.1522,0.1534,0,0,0,0,0,0,0.0818,0.0833,0.0975,0.0923,0.0944,0.1001,0.1024,0.1032,0.1087,0.1073,0.1072,0.1107,0.1082,0.1083,0.1226,0.1339,0.1076,0.1078,0.1497,0.1513,0.1528,0.1756,0,0,0,0,0,0,0.0812,0.083,0.0851,0.0922,0.0946,0.1091,0.1027,0.1037,0.1102,0.1101,0.1114,0.1109,0.1079,0.1224,0.1228,0.1337,0.108,0.1483,0.1504,0.1523,0.1735,0.1778,0.1814,0,0,0,0,0,0.0805,0.086,0.0851,0.0867,0.0968,0.1095,0.1114,0.1142,0.1108,0.1173,0.123,0.1109,0.1353,0.1235,0.1237,0.1348,0.1474,0.1498,0.1521,0.1717,0.1769,0.1813,0,0,0,0,0,0,0.0809,0.0867,0.0858,0.0929,0.1017,0.1096,0.1158,0.1169,0.1265,0.1258,0.1231,0.1237,0.1416,0.1383,0.1253,0.1557,0.1399,0.1424,0.1548,0.1596,0.1635,0.1598,0.1081,0,0,0,0,0,0.0814,0.0865,0.0934,0.1002,0.1041,0.1101,0.1154,0.1179,0.1263,0.1299,0.1327,0.1395,0.152,0.1552,0.1639,0.1775,0.175,0.1867,0.1906,0.1939,0.1927,0.206,0.2107,0.1612,0.1612,0.1611,0,0,0.0833,0.0877,0.0904,0.1007,0.1066,0.1186,0.1128,0.1232,0.1351,0.1283,0.1462,0.1529,0.1602,0.1795,0.1867,0.1766,0.2082,0.1969,0.1995,0.1964,0.2089,0.2136,0.2177,0.1628,0.1625,0.1623,0,0,0.0942,0.094,0.1034,0.111,0.1212,0.1262,0.1299,0.1404,0.1466,0.1646,0.1673,0.1825,0.1955,0.2063,0.2126,0.244,0.2304,0.247,0.26,0.2734,0.2771,0.2804,0.2855,0.2891,0.2465,0.2466,0.2466,0,0.0969,0.1086,0.1092,0.1215,0.1292,0.1306,0.1446,0.1537,0.1687,0.1767,0.1732,0.205,0.2095,0.2361,0.2491,0.2516,0.2534,0.239,0.2773,0.2805,0.2835,0.2878,0.2914,0.248,0.2478,0.2477,0.2475,0,0.1168,0.1251,0.1323,0.1468,0.1555,0.1679,0.1777,0.1884,0.1937,0.2023,0.2278,0.2392,0.255,0.264,0.2652,0.2928,0.2856,0.2813,0.2614,0.2896,0.2928,0.2961,0.25,0.2495,0.2491,0.2487,0,0,0.1294,0.1427,0.1462,0.1533,0.1689,0.1779,0.1974,0.2159,0.2266,0.243,0.2598,0.2883,0.288,0.296,0.3013,0.314,0.3387,0.3065,0.3065,0.3047,0.3632,0.3534,0.3558,0.3399,0.3406,0.3412,0.3571,0,0.147,0.1678,0.1724,0.194,0.2054,0.2101,0.2269,0.2417,0.2525,0.2682,0.2828,0.3001,0.3022,0.3083,0.3244,0.3345,0.3484,0.3344,0.3419,0.342,0.3243,0.3598,0.3539,0.3672,0.3602,0.3607,0.3611,0,0.1699,0.1793,0.1994,0.2127,0.2181,0.2296,0.249,0.2636,0.2834,0.2907,0.3083,0.3146,0.3395,0.3329,0.3649,0.3551,0.3623,0.3685,0.3691,0.3526,0.3386,0.3387,0.3733,0.373,0.366,0.3656,0.3653,0,0.1801,0.1999,0.2136,0.2195,0.2352,0.2436,0.2522,0.2707,0.2798,0.3011,0.3063,0.3349,0.3433,0.3635,0.3766,0.3719,0.4047,0.3981,0.3971,0.3959,0.3884,0.3854,0.417,0.4218,0.4218,0.4218,0.4217,0,0.1985,0.2103,0.2166,0.2245,0.2367,0.2473,0.2611,0.2724,0.2871,0.2982,0.3143,0.3263,0.3512,0.3698,0.3832,0.4012,0.4111,0.4058,0.4041,0.3968,0.3946,0.3907,0.3902,0.4223,0.4222,0.4221,0.422,0,0.2067,0.214,0.2259,0.2378,0.2406,0.247,0.2557,0.2649,0.2794,0.2926,0.2978,0.322,0.3466,0.3688,0.3986,0.4051,0.4182,0.427,0.4125,0.409,0.4029,0.4037,0.404,0.3948,0.4299,0.4298,0.4298,0,0.2112,0.2188,0.2266,0.2277,0.2309,0.2391,0.2439,0.2585,0.2659,0.2902,0.2958,0.3209,0.3383,0.3761,0.3977,0.4217,0.4159,0.4244,0.4168,0.409,0.4089,0.3858,0.3763,0.4172,0.4171,0.4169,0.4168,0,0.2149,0.2159,0.221,0.2226,0.2255,0.2296,0.2372,0.2412,0.2604,0.2718,0.29,0.3052,0.3404,0.3654,0.3943,0.4079,0.4103,0.4216,0.4238,0.413,0.3804,0.3681,0.3933,0.4157,0.4158,0.4159,0.4159,0.416,0.2106,0.2109,0.2145,0.2155,0.2175,0.2208,0.2232,0.2323,0.2428,0.2615,0.2794,0.3013,0.3416,0.3815,0.3908,0.4084,0.3985,0.4096,0.4144,0.3935,0.3776,0.395,0.4075,0.4076,0.4077,0.4077,0.4078,0,0.2054,0.2072,0.2073,0.2095,0.2086,0.2131,0.2194,0.2223,0.2313,0.2524,0.2683,0.3117,0.3424,0.3734,0.4102,0.4098,0.3869,0.4059,0.3814,0.3749,0.4053,0.3979,0.3964,0.3964,0.3964,0.3964,0.3964,0.3964,0.2039,0.204,0.2053,0.2019,0.2018,0.2017,0.2041,0.2094,0.222,0.2456,0.2697,0.2919,0.344,0.4058,0.4275,0.4198,0.3976,0.3798,0.3761,0.4112,0.4119,0.4126,0.4059,0.4062,0.4062,0.3287,0.3283,0.328]},{"header":{"parameterUnit":"m.s-1","parameterCategory":2,"la1":30.2991,"la2":30.254,"lo1":-89.0895,"lo2":-89.0444,"dy":0.0017,"dx":0.0017,"nx":28,"ny":28,"refTime":"2024-07-03T09:00:00:Z","depth":"0","parameterNumber":3,"parameterNumberName":"V-component_of_CURRENTS"},"data":[0,0,0,0,0,0,0,0,0,0,0,0,0,0,0,0,0,0,0,0,0,0,0,0,0,0,0,0,0,0,0,0,0,0,0,0,0,0,0,0,0,0,0,0,0,0,0,0,0,0,0,0,0,0,0,0,0,0,0.03,0.0301,0,0.0379,0.038,0.0381,0.0426,0.0426,0.0427,0.0427,0.0404,0.0404,0.0403,0,0,0,0,0,0,0,0,0,0,0,0,0,0.0151,0.0154,0.03,0.0301,0.0302,0.0379,0.038,0.0381,0.0426,0.0426,0.0427,0.0427,0.0405,0.0404,0.0403,0,0,0,0,0,0,0,0,0,0,0,0,0,0.0221,0.0155,0.03,0.0335,0.0339,0.0379,0.038,0.0381,0.0426,0.0426,0.0427,0.0427,0.0405,0.0404,0.0403,0.0388,0,0,0.0399,0.0398,0,0,0,0,0,0,0,0,0.0217,0.0226,0.0328,0.0332,0.0337,0.0394,0.032,0.0379,0.0426,0.0392,0.0427,0.0427,0.0392,0.0392,0.0406,0.0387,0.0386,0.0399,0.0398,0.0397,0.0397,0,0,0,0,0,0,0,0.0212,0.0223,0.0331,0.033,0.0335,0.0334,0.0344,0.0331,0.0386,0.0395,0.0399,0.0409,0.0393,0.0407,0.0405,0.0385,0.0399,0.0398,0.0397,0.0396,0.0453,0.0455,0,0,0,0,0,0,0.0206,0.0219,0.0328,0.0333,0.0277,0.0336,0.0348,0.0375,0.0389,0.0392,0.0408,0.0411,0.0409,0.0407,0.0405,0.0532,0.0397,0.0396,0.0396,0.045,0.0453,0.0456,0,0,0,0,0,0,0.0203,0.0216,0.0325,0.0277,0.0291,0.0339,0.0368,0.0376,0.04,0.04,0.0402,0.0425,0.0409,0.0406,0.0435,0.0526,0.0396,0.0395,0.0448,0.0451,0.0454,0.0694,0,0,0,0,0,0,0.0199,0.0215,0.0228,0.0277,0.0294,0.0381,0.0368,0.0377,0.0406,0.0409,0.0415,0.0413,0.0409,0.0438,0.0434,0.0522,0.0394,0.0445,0.0449,0.0453,0.0683,0.0705,0.0724,0,0,0,0,0,0.0193,0.0233,0.0229,0.0242,0.0313,0.0383,0.0393,0.0425,0.0406,0.0442,0.0448,0.0413,0.0461,0.0439,0.0434,0.0524,0.0443,0.0448,0.0453,0.0674,0.0701,0.0723,0,0,0,0,0,0,0.0162,0.0242,0.0239,0.0295,0.0342,0.0392,0.0428,0.0427,0.0458,0.0455,0.0439,0.044,0.0503,0.0459,0.0433,0.0546,0.0447,0.0451,0.0616,0.0641,0.0661,0.0727,0.0393,0,0,0,0,0,0.0161,0.0225,0.0275,0.0319,0.0347,0.0377,0.0403,0.0423,0.0456,0.047,0.0482,0.0486,0.0517,0.0534,0.0541,0.0593,0.0535,0.0643,0.0663,0.0681,0.0729,0.07,0.0723,0.0472,0.0472,0.0472,0,0,0.0156,0.021,0.0241,0.0318,0.0356,0.0458,0.0397,0.0454,0.0551,0.0458,0.0581,0.0551,0.054,0.0628,0.065,0.0607,0.0718,0.0688,0.0704,0.0742,0.0708,0.0733,0.0754,0.0476,0.0475,0.0474,0,0,0.0246,0.0234,0.035,0.0399,0.0471,0.0497,0.0515,0.0575,0.0615,0.0698,0.0674,0.0705,0.0734,0.0781,0.0797,0.0918,0.0819,0.0898,0.1074,0.1046,0.1067,0.1085,0.1033,0.1045,0.0918,0.0919,0.0919,0,0.0243,0.0391,0.0385,0.0515,0.0575,0.0529,0.0663,0.0705,0.0769,0.0823,0.0769,0.0857,0.0833,0.0971,0.1028,0.0977,0.0917,0.0993,0.1077,0.1093,0.1108,0.105,0.1059,0.0931,0.0929,0.0928,0.0927,0,0.0471,0.0551,0.0616,0.0778,0.0828,0.0918,0.097,0.1025,0.1031,0.1076,0.118,0.1148,0.1201,0.1199,0.1163,0.1275,0.1183,0.11,0.1026,0.1149,0.1077,0.1084,0.0948,0.0944,0.094,0.0937,0,0,0.0613,0.0749,0.0788,0.0858,0.0968,0.103,0.1178,0.131,0.1407,0.1438,0.1572,0.1625,0.1561,0.1573,0.1509,0.1504,0.1544,0.1364,0.1357,0.1334,0.1459,0.1388,0.1385,0.1462,0.1465,0.1467,0.1365,0,0.0816,0.1044,0.1089,0.1287,0.1391,0.1387,0.1527,0.1613,0.1656,0.1759,0.1741,0.1813,0.1717,0.1717,0.1714,0.158,0.1572,0.1578,0.1326,0.132,0.1259,0.1396,0.1262,0.116,0.137,0.1371,0.1371,0,0.1098,0.1194,0.1403,0.1507,0.156,0.1664,0.182,0.1935,0.2047,0.2076,0.2136,0.2084,0.2127,0.1972,0.1876,0.1873,0.1709,0.1589,0.1579,0.1445,0.1262,0.107,0.1161,0.0923,0.1379,0.1378,0.1378,0,0.1228,0.1428,0.1571,0.162,0.1744,0.1834,0.1908,0.2038,0.214,0.2253,0.2301,0.233,0.2307,0.2164,0.1942,0.1894,0.178,0.1659,0.1453,0.1443,0.1252,0.1222,0.1108,0.1591,0.1591,0.1591,0.1591,0,0.1431,0.1552,0.1624,0.1698,0.1857,0.1924,0.2106,0.2181,0.2317,0.2444,0.2441,0.251,0.2344,0.2252,0.203,0.1789,0.1844,0.1536,0.1441,0.1328,0.1307,0.1024,0.0884,0.1587,0.1588,0.1589,0.159,0,0.1529,0.1598,0.1743,0.1868,0.1905,0.201,0.2167,0.2298,0.2411,0.2563,0.2595,0.2642,0.2541,0.2356,0.2115,0.1888,0.1482,0.1545,0.1427,0.1323,0.0905,0.0782,0.0628,0.0436,0.1311,0.1309,0.1307,0,0.1586,0.1671,0.1807,0.1868,0.1914,0.2061,0.2167,0.232,0.2456,0.2635,0.271,0.2695,0.2698,0.2367,0.1974,0.1619,0.1408,0.1257,0.1164,0.0924,0.0716,0.0689,0.0535,0.0979,0.0974,0.0971,0.0968,0,0.1654,0.17,0.1788,0.19,0.2007,0.215,0.2308,0.2423,0.2617,0.2733,0.2863,0.2881,0.2601,0.223,0.1786,0.1505,0.1038,0.1175,0.0951,0.0507,0.0444,0.0197,0.0988,0.0938,0.0941,0.0943,0.0945,0.0946,0.1679,0.1741,0.1836,0.194,0.2059,0.2216,0.2341,0.2505,0.2689,0.2872,0.2924,0.2965,0.2484,0.1867,0.1468,0.0703,0.0774,0.0461,0.0346,0.0357,0.0152,0.0899,0.0732,0.0734,0.0736,0.0737,0.0738,0,0.1714,0.177,0.1863,0.2018,0.2136,0.22,0.2424,0.2556,0.273,0.2892,0.2994,0.2813,0.2098,0.1485,0.0466,-0.0043,-0.0231,-0.027,-0.0376,-0.0491,0.0172,0.0136,-0.0196,-0.0196,-0.0196,-0.0195,-0.0195,-0.0195,0.1747,0.1829,0.1873,0.204,0.2145,0.2337,0.2458,0.262,0.278,0.2955,0.3026,0.3084,0.2675,0.0923,-0.0348,-0.0688,-0.1046,-0.1078,-0.1214,-0.0807,-0.0747,-0.069,-0.0753,-0.1266,-0.1268,-0.1874,-0.188,-0.1885]}],[{"header":{"parameterUnit":"m.s-1","parameterCategory":2,"la1":30.2991,"la2":30.254,"lo1":-89.0895,"lo2":-89.0444,"dy":0.0017,"dx":0.0017,"nx":28,"ny":28,"refTime":"2024-07-03T09:00:00:Z","depth":"2","parameterNumber":2,"parameterNumberName":"U-component_of_CURRENTS"},"data":[0,0,0,0,0,0,0,0,0,0,0,0,0,0,0,0,0,0,0,0,0,0,0,0,0,0,0,0,0,0,0,0,0,0,0,0,0,0,0,0,0,0,0,0,0,0,0,0,0,0,0,0,0,0,0,0,0,0,0.0702,0.0702,0,0.0656,0.0655,0.0654,0.0596,0.0596,0.0596,0.0596,0.0707,0.071,0.0713,0,0,0,0,0,0,0,0,0,0,0,0,0,0.0683,0.0684,0.0702,0.0702,0.0703,0.0656,0.0655,0.0653,0.0596,0.0596,0.0596,0.0596,0.0707,0.071,0.0714,0,0,0,0,0,0,0,0,0,0,0,0,0,0.0661,0.0684,0.0702,0.0676,0.0673,0.0657,0.0655,0.0653,0.0596,0.0596,0.0596,0.0596,0.0705,0.071,0.0714,0.0743,0,0,0.0728,0.073,0,0,0,0,0,0,0,0,0.0662,0.066,0.0679,0.0678,0.0675,0.064,0.069,0.0694,0.0596,0.0615,0.0596,0.0596,0.0706,0.071,0.0686,0.0748,0.0753,0.0728,0.0731,0.0733,0.0734,0,0,0,0,0,0,0,0.0664,0.0662,0.0674,0.068,0.0677,0.0647,0.0643,0.0688,0.0657,0.0613,0.0612,0.0622,0.0705,0.0681,0.0689,0.0755,0.0728,0.0732,0.0735,0.0737,0.0952,0.0955,0,0,0,0,0,0,0.0692,0.0664,0.0676,0.0674,0.0679,0.0649,0.0644,0.0644,0.0653,0.0656,0.0622,0.062,0.0674,0.0683,0.0693,0.0832,0.0733,0.0737,0.074,0.0949,0.0953,0.0956,0,0,0,0,0,0,0.0692,0.0693,0.0678,0.0676,0.0673,0.0651,0.065,0.0643,0.0645,0.0659,0.0663,0.0635,0.0674,0.0687,0.075,0.0833,0.0739,0.0743,0.0946,0.095,0.0955,0.1046,0,0,0,0,0,0,0.0691,0.0693,0.07,0.0678,0.0675,0.0684,0.0651,0.0642,0.0654,0.0651,0.0673,0.068,0.0675,0.0743,0.0755,0.0837,0.0747,0.0942,0.0948,0.0953,0.1039,0.1053,0.1065,0,0,0,0,0,0.069,0.0715,0.07,0.0702,0.0685,0.0686,0.0681,0.0658,0.0656,0.0658,0.0676,0.0681,0.0789,0.0749,0.0761,0.0848,0.0939,0.0946,0.0953,0.1033,0.105,0.1065,0,0,0,0,0,0,0.0715,0.0712,0.0695,0.0717,0.0708,0.0681,0.0695,0.068,0.0689,0.0709,0.0706,0.0715,0.0806,0.0813,0.0769,0.0927,0.0872,0.0881,0.0929,0.0945,0.0958,0.0963,0.0751,0,0,0,0,0,0.0725,0.074,0.0725,0.0744,0.0749,0.0725,0.0726,0.0718,0.0727,0.0729,0.0739,0.078,0.084,0.0878,0.0914,0.0998,0.0988,0.1067,0.108,0.1091,0.1106,0.1142,0.1159,0.0979,0.0978,0.0978,0,0,0.0737,0.0744,0.0748,0.0751,0.0745,0.077,0.0724,0.0751,0.0781,0.075,0.08,0.0824,0.087,0.0954,0.0999,0.0975,0.1137,0.11,0.1108,0.1117,0.1151,0.1168,0.1183,0.0983,0.0982,0.0982,0,0,0.0792,0.0782,0.0816,0.0812,0.083,0.0825,0.0845,0.0836,0.0838,0.0882,0.0889,0.0951,0.1012,0.1061,0.1099,0.1211,0.1198,0.1245,0.1326,0.1361,0.1376,0.1388,0.1389,0.1401,0.1258,0.1258,0.1259,0,0.0807,0.0849,0.0826,0.0859,0.0879,0.0863,0.091,0.0912,0.0923,0.0947,0.0918,0.1029,0.1065,0.1196,0.1238,0.1244,0.1245,0.126,0.1376,0.1389,0.14,0.1397,0.1409,0.1264,0.1263,0.1262,0.1262,0,0.0877,0.0913,0.0941,0.0977,0.099,0.1034,0.1041,0.1062,0.1071,0.1071,0.1163,0.1186,0.1253,0.1293,0.1305,0.1436,0.1403,0.1378,0.133,0.1423,0.1415,0.1426,0.1271,0.1269,0.1268,0.1266,0,0,0.0914,0.0977,0.0991,0.1015,0.1062,0.1075,0.1149,0.1198,0.1232,0.1256,0.1306,0.1421,0.1418,0.1462,0.1492,0.1537,0.1619,0.1508,0.1507,0.1496,0.168,0.1682,0.1693,0.1615,0.1618,0.162,0.1637,0,0.0982,0.106,0.1091,0.1172,0.1205,0.1222,0.1269,0.1309,0.133,0.1361,0.1421,0.1479,0.1491,0.1529,0.1586,0.1604,0.1655,0.1616,0.1603,0.1602,0.1583,0.1709,0.1628,0.164,0.1647,0.1649,0.165,0,0.1041,0.1088,0.1174,0.1241,0.1259,0.1304,0.1368,0.1414,0.1469,0.1479,0.1556,0.1572,0.1684,0.1646,0.1743,0.1718,0.1727,0.1723,0.1723,0.1703,0.1626,0.1552,0.1659,0.1668,0.1666,0.1665,0.1664,0,0.1037,0.1148,0.1219,0.1237,0.1306,0.1352,0.14,0.1451,0.148,0.1563,0.1577,0.1684,0.1725,0.1771,0.1797,0.1776,0.1854,0.1808,0.1818,0.1814,0.1734,0.1721,0.1882,0.1882,0.1882,0.1882,0.1882,0,0.1078,0.1129,0.1217,0.1233,0.1301,0.1357,0.1418,0.1462,0.1527,0.1577,0.1643,0.1698,0.176,0.1809,0.1823,0.1867,0.1882,0.1865,0.1845,0.1764,0.1754,0.1763,0.1749,0.1883,0.1883,0.1882,0.1882,0,0.1048,0.1111,0.117,0.126,0.1286,0.1326,0.1403,0.1441,0.151,0.1578,0.1615,0.1716,0.1805,0.184,0.1901,0.1896,0.1927,0.1935,0.1826,0.1796,0.1847,0.1838,0.1946,0.1947,0.1948,0.1948,0.1949,0,0.1034,0.1063,0.115,0.1178,0.1223,0.1287,0.1323,0.1411,0.1462,0.1595,0.1635,0.1748,0.1826,0.1905,0.1947,0.1978,0.1967,0.189,0.1858,0.1898,0.1866,0.1855,0.1845,0.1768,0.1767,0.1766,0.1765,0,0.0997,0.1028,0.1077,0.1128,0.1178,0.1228,0.1306,0.1337,0.1465,0.152,0.1635,0.1713,0.1847,0.189,0.195,0.1937,0.1881,0.1875,0.1965,0.1776,0.1735,0.1701,0.1696,0.1758,0.1758,0.1759,0.1759,0.176,0.0958,0.0977,0.1037,0.1091,0.1137,0.1186,0.121,0.1304,0.1372,0.1484,0.1591,0.1677,0.1775,0.1848,0.1831,0.1815,0.1909,0.1825,0.1825,0.1826,0.1815,0.178,0.1805,0.1806,0.1807,0.1808,0.1809,0,0.0914,0.0949,0.0994,0.1051,0.1083,0.1124,0.1207,0.124,0.1311,0.1435,0.1518,0.1494,0.1599,0.1673,0.1687,0.1709,0.1644,0.1614,0.1544,0.1556,0.1565,0.1537,0.1455,0.1453,0.1451,0.1449,0,0,0.089,0.0918,0.0955,0.0992,0.1028,0.1053,0.109,0.1152,0.1244,0.1278,0.1331,0.1508,0.165,0.1529,0.155,0.1519,0.1495,0.1449,0.1748,0.1678,0.1684,0.1721,0.1697,0,0,0,0,0]},{"header":{"parameterUnit":"m.s-1","parameterCategory":2,"la1":30.2991,"la2":30.254,"lo1":-89.0895,"lo2":-89.0444,"dy":0.0017,"dx":0.0017,"nx":28,"ny":28,"refTime":"2024-07-03T09:00:00:Z","depth":"2","parameterNumber":3,"parameterNumberName":"V-component_of_CURRENTS"},"data":[0,0,0,0,0,0,0,0,0,0,0,0,0,0,0,0,0,0,0,0,0,0,0,0,0,0,0,0,0,0,0,0,0,0,0,0,0,0,0,0,0,0,0,0,0,0,0,0,0,0,0,0,0,0,0,0,0,0,-0.0299,-0.03,0,-0.0506,-0.051,-0.0513,-0.0644,-0.0643,-0.0643,-0.0642,-0.054,-0.0538,-0.0536,0,0,0,0,0,0,0,0,0,0,0,0,0,-0.0391,-0.0388,-0.0298,-0.03,-0.0301,-0.0505,-0.051,-0.0514,-0.0644,-0.0643,-0.0643,-0.0642,-0.054,-0.0538,-0.0535,0,0,0,0,0,0,0,0,0,0,0,0,0,-0.0464,-0.0387,-0.0298,-0.0379,-0.0387,-0.0504,-0.051,-0.0515,-0.0645,-0.0643,-0.0642,-0.0641,-0.0541,-0.0538,-0.0535,-0.0538,0,0,-0.0526,-0.0524,0,0,0,0,0,0,0,0,-0.046,-0.0463,-0.0366,-0.0373,-0.0382,-0.0534,-0.0505,-0.0502,-0.0645,-0.0564,-0.0642,-0.0641,-0.0499,-0.05,-0.0569,-0.0533,-0.0529,-0.0525,-0.0524,-0.0522,-0.0521,0,0,0,0,0,0,0,-0.0454,-0.0457,-0.0397,-0.0366,-0.0377,-0.0532,-0.054,-0.0509,-0.0542,-0.0571,-0.0577,-0.0575,-0.0504,-0.0572,-0.0566,-0.0527,-0.0526,-0.0523,-0.0521,-0.052,-0.0446,-0.0446,0,0,0,0,0,0,-0.0376,-0.0449,-0.039,-0.0402,-0.0401,-0.0528,-0.0538,-0.05,-0.0549,-0.0553,-0.0575,-0.0579,-0.0578,-0.0569,-0.0562,-0.0505,-0.0522,-0.0519,-0.0518,-0.0447,-0.0446,-0.0446,0,0,0,0,0,0,-0.0377,-0.0368,-0.0381,-0.0421,-0.0431,-0.0523,-0.0483,-0.0504,-0.0544,-0.0553,-0.0554,-0.0587,-0.0576,-0.0566,-0.0522,-0.0502,-0.0518,-0.0515,-0.0447,-0.0447,-0.0446,-0.0427,0,0,0,0,0,0,-0.0379,-0.0366,-0.0329,-0.0413,-0.0425,-0.0441,-0.0483,-0.0508,-0.0538,-0.0546,-0.0563,-0.0556,-0.0575,-0.0526,-0.0518,-0.0498,-0.0513,-0.0447,-0.0447,-0.0446,-0.0428,-0.0426,-0.0425,0,0,0,0,0,-0.0381,-0.033,-0.0325,-0.0319,-0.0363,-0.0439,-0.0463,-0.054,-0.0538,-0.057,-0.0567,-0.0554,-0.052,-0.0523,-0.0514,-0.0493,-0.0447,-0.0447,-0.0446,-0.0428,-0.0427,-0.0425,0,0,0,0,0,0,-0.0377,-0.034,-0.0336,-0.0281,-0.0344,-0.0455,-0.048,-0.0516,-0.0554,-0.0528,-0.0544,-0.0538,-0.0503,-0.0494,-0.0498,-0.0475,-0.0483,-0.0481,-0.0473,-0.0471,-0.0469,-0.0478,-0.051,0,0,0,0,0,-0.0342,-0.0279,-0.0312,-0.0276,-0.029,-0.0376,-0.0413,-0.0451,-0.0487,-0.0508,-0.0519,-0.0511,-0.0506,-0.048,-0.0485,-0.0448,-0.0475,-0.0433,-0.0431,-0.043,-0.0433,-0.0478,-0.0481,-0.0446,-0.0446,-0.0446,0,0,-0.033,-0.0301,-0.0268,-0.0269,-0.0321,-0.0354,-0.0401,-0.0432,-0.0458,-0.0474,-0.0496,-0.05,-0.0497,-0.0489,-0.0469,-0.0467,-0.0452,-0.043,-0.0428,-0.0432,-0.0478,-0.0482,-0.0485,-0.0445,-0.0445,-0.0445,0,0,-0.0309,-0.0248,-0.0212,-0.0244,-0.0272,-0.032,-0.0308,-0.0387,-0.042,-0.0431,-0.0454,-0.0447,-0.0439,-0.046,-0.0458,-0.0438,-0.0452,-0.0425,-0.0408,-0.0452,-0.0456,-0.0459,-0.0491,-0.0498,-0.0414,-0.0414,-0.0414,0,-0.0304,-0.0248,-0.0233,-0.0235,-0.025,-0.0286,-0.03,-0.0347,-0.0405,-0.0415,-0.0418,-0.0449,-0.0437,-0.0436,-0.0443,-0.0434,-0.0459,-0.0413,-0.0451,-0.0455,-0.0459,-0.0492,-0.0499,-0.0413,-0.0413,-0.0413,-0.0413,0,-0.0291,-0.0246,-0.0237,-0.022,-0.0245,-0.0257,-0.029,-0.0311,-0.0323,-0.0371,-0.038,-0.0404,-0.0422,-0.0417,-0.0419,-0.0434,-0.0444,-0.0454,-0.0457,-0.0462,-0.0495,-0.0504,-0.0411,-0.0412,-0.0412,-0.0412,0,0,-0.0303,-0.0229,-0.0238,-0.0213,-0.0225,-0.0246,-0.0252,-0.029,-0.0295,-0.0338,-0.0365,-0.0375,-0.0394,-0.0394,-0.0403,-0.0433,-0.0477,-0.0445,-0.0448,-0.0479,-0.0569,-0.0571,-0.0581,-0.0495,-0.0496,-0.0497,-0.0578,0,-0.0317,-0.0268,-0.0248,-0.0237,-0.0216,-0.0229,-0.0248,-0.0269,-0.0293,-0.0328,-0.0346,-0.0369,-0.0381,-0.0381,-0.0416,-0.046,-0.0498,-0.0453,-0.0558,-0.0561,-0.0564,-0.059,-0.0546,-0.0615,-0.0587,-0.0588,-0.0589,0,-0.0352,-0.0291,-0.0251,-0.0201,-0.0202,-0.0204,-0.0211,-0.0237,-0.0274,-0.0288,-0.0311,-0.0342,-0.0373,-0.0392,-0.0483,-0.0452,-0.051,-0.0553,-0.0558,-0.0574,-0.0579,-0.0607,-0.0631,-0.0603,-0.0602,-0.0601,-0.06,0,-0.0374,-0.0319,-0.0261,-0.025,-0.0202,-0.0191,-0.0191,-0.022,-0.0231,-0.0263,-0.0263,-0.0324,-0.0341,-0.0427,-0.05,-0.0498,-0.0612,-0.0622,-0.0686,-0.0687,-0.0677,-0.0674,-0.0712,-0.0711,-0.0711,-0.0711,-0.0711,0,-0.0401,-0.0364,-0.0253,-0.0223,-0.0181,-0.0169,-0.0157,-0.0173,-0.019,-0.019,-0.0238,-0.0246,-0.0353,-0.0424,-0.0505,-0.0612,-0.0619,-0.0695,-0.0714,-0.0667,-0.0663,-0.0673,-0.0668,-0.0714,-0.0713,-0.0713,-0.0712,0,-0.0438,-0.0368,-0.0294,-0.0205,-0.0179,-0.0155,-0.0116,-0.0117,-0.0127,-0.0126,-0.0129,-0.0195,-0.0281,-0.0393,-0.0533,-0.0608,-0.0716,-0.0757,-0.0686,-0.0696,-0.0764,-0.0756,-0.0849,-0.085,-0.085,-0.0851,-0.0851,0,-0.0432,-0.0388,-0.0276,-0.0228,-0.0178,-0.0123,-0.01,-0.0091,-0.0079,-0.0087,-0.0086,-0.0164,-0.0194,-0.0393,-0.0553,-0.071,-0.0734,-0.0784,-0.0781,-0.0772,-0.0781,-0.0772,-0.0764,-0.0759,-0.0759,-0.0759,-0.0758,0,-0.041,-0.0377,-0.0314,-0.0212,-0.0152,-0.0092,-0.0041,-0.0015,-0.0006,0.0019,0.0029,0.0007,-0.0179,-0.0321,-0.0543,-0.0653,-0.0755,-0.0786,-0.0809,-0.0725,-0.0693,-0.07,-0.0694,-0.0757,-0.0757,-0.0757,-0.0757,-0.0757,-0.0397,-0.0357,-0.0271,-0.019,-0.0124,-0.0048,0.0002,0.0069,0.0123,0.0191,0.0136,0.0153,-0.0061,-0.0305,-0.0512,-0.0731,-0.0752,-0.0812,-0.0811,-0.081,-0.0779,-0.0749,-0.0818,-0.0818,-0.0819,-0.0819,-0.0819,0,-0.0362,-0.0317,-0.0243,-0.0138,-0.0073,-0.0039,0.0047,0.012,0.0223,0.0296,0.0339,0.0215,0.0033,-0.0201,-0.0516,-0.0726,-0.0732,-0.0785,-0.0741,-0.0742,-0.0744,-0.0708,-0.0728,-0.0729,-0.0729,-0.0729,0,0,-0.0334,-0.0264,-0.0225,-0.0095,-0.0034,0.0062,0.0117,0.0244,0.0333,0.0463,0.0504,0.0459,0.0145,-0.0049,-0.0351,-0.0529,-0.0581,-0.0564,-0.0619,-0.0534,-0.0531,-0.0748,-0.0693,0,0,0,0,0]}],[{"header":{"parameterUnit":"m.s-1","parameterCategory":2,"la1":30.2991,"la2":30.254,"lo1":-89.0895,"lo2":-89.0444,"dy":0.0017,"dx":0.0017,"nx":28,"ny":28,"refTime":"2024-07-03T09:00:00:Z","depth":"4","parameterNumber":2,"parameterNumberName":"U-component_of_CURRENTS"},"data":[0,0,0,0,0,0,0,0,0,0,0,0,0,0,0,0,0,0,0,0,0,0,0,0,0,0,0,0,0,0,0,0,0,0,0,0,0,0,0,0,0,0,0,0,0,0,0,0,0,0,0,0,0,0,0,0,0,0,0.0632,0.0633,0,0.064,0.064,0.064,0.0661,0.0662,0.0662,0.0663,0.0722,0.0723,0.0724,0,0,0,0,0,0,0,0,0,0,0,0,0,0.0577,0.0578,0.0632,0.0633,0.0633,0.064,0.064,0.064,0.0661,0.0662,0.0662,0.0663,0.0722,0.0723,0.0724,0,0,0,0,0,0,0,0,0,0,0,0,0,0.0593,0.0578,0.0632,0.0646,0.0647,0.064,0.064,0.064,0.0661,0.0662,0.0663,0.0663,0.0722,0.0723,0.0724,0.0715,0,0,0.0729,0.073,0,0,0,0,0,0,0,0,0.0592,0.0594,0.0643,0.0645,0.0646,0.0652,0.0642,0.0668,0.066,0.0653,0.0663,0.0664,0.0704,0.0707,0.0703,0.0718,0.072,0.0729,0.073,0.0731,0.0731,0,0,0,0,0,0,0,0.0591,0.0594,0.0633,0.0644,0.0645,0.0631,0.0635,0.0646,0.0673,0.0654,0.0656,0.066,0.0705,0.0701,0.0705,0.0721,0.0729,0.073,0.0731,0.0732,0.0767,0.0767,0,0,0,0,0,0,0.0596,0.0593,0.0633,0.0634,0.0623,0.0632,0.0635,0.0648,0.0672,0.0676,0.0659,0.0661,0.0698,0.0703,0.0707,0.075,0.0731,0.0732,0.0733,0.0767,0.0767,0.0767,0,0,0,0,0,0,0.0595,0.06,0.0633,0.0614,0.0618,0.0632,0.0645,0.0647,0.0669,0.0675,0.0681,0.0682,0.0699,0.0705,0.0728,0.075,0.0733,0.0734,0.0767,0.0767,0.0767,0.0801,0,0,0,0,0,0,0.0593,0.0599,0.0617,0.0615,0.0619,0.0644,0.0645,0.0647,0.0669,0.0672,0.0696,0.0701,0.0701,0.0726,0.0729,0.0752,0.0735,0.0767,0.0767,0.0767,0.08,0.0803,0.0805,0,0,0,0,0,0.0591,0.061,0.0618,0.0623,0.0641,0.0645,0.0646,0.0657,0.067,0.068,0.0691,0.0702,0.0729,0.0727,0.0731,0.0755,0.0767,0.0767,0.0767,0.0799,0.0802,0.0805,0,0,0,0,0,0,0.0595,0.0614,0.0623,0.0648,0.0654,0.065,0.0665,0.0671,0.0686,0.0699,0.0703,0.0708,0.0732,0.0736,0.0733,0.0762,0.0749,0.075,0.0772,0.0775,0.0777,0.0788,0.0737,0,0,0,0,0,0.0604,0.0625,0.0634,0.0654,0.0663,0.0668,0.0676,0.0684,0.0693,0.0702,0.0721,0.0733,0.0729,0.0748,0.0748,0.0773,0.0773,0.0789,0.0791,0.0793,0.0803,0.0801,0.0804,0.0768,0.0768,0.0768,0,0,0.0609,0.0624,0.0636,0.0657,0.0666,0.0676,0.0676,0.0697,0.0712,0.0706,0.0747,0.0742,0.0734,0.0751,0.0764,0.0766,0.0805,0.0793,0.0795,0.0804,0.0802,0.0805,0.0809,0.0768,0.0768,0.0768,0,0,0.0623,0.0649,0.0668,0.0678,0.0699,0.0698,0.0711,0.0728,0.0748,0.0772,0.0763,0.0771,0.0793,0.0783,0.0779,0.0795,0.0807,0.0804,0.0841,0.0839,0.0842,0.0845,0.0859,0.0863,0.0817,0.0817,0.0817,0,0.0628,0.0655,0.0672,0.0691,0.0703,0.0713,0.0729,0.0743,0.0768,0.0787,0.0794,0.0807,0.0802,0.0805,0.0808,0.0802,0.0812,0.0834,0.0843,0.0846,0.0848,0.0862,0.0866,0.0819,0.0818,0.0818,0.0818,0,0.0653,0.0674,0.0687,0.0714,0.0729,0.0745,0.0765,0.0793,0.0818,0.083,0.0859,0.0848,0.086,0.0853,0.0838,0.0854,0.0859,0.0837,0.084,0.0854,0.0867,0.0871,0.0821,0.082,0.082,0.0819,0,0,0.0653,0.0695,0.07,0.0713,0.0745,0.0754,0.0792,0.0818,0.0846,0.0877,0.091,0.09,0.0913,0.0907,0.0894,0.0894,0.0913,0.0887,0.0886,0.0908,0.0933,0.095,0.0956,0.0902,0.0903,0.0903,0.0939,0,0.0663,0.0693,0.0718,0.0742,0.0755,0.0784,0.0815,0.0847,0.0876,0.0913,0.0919,0.094,0.0929,0.094,0.0941,0.0916,0.0924,0.0907,0.0909,0.091,0.0929,0.096,0.0905,0.0942,0.0942,0.0943,0.0943,0,0.0676,0.0693,0.0722,0.0755,0.0767,0.0788,0.0839,0.0871,0.092,0.0951,0.0985,0.0994,0.1013,0.0989,0.0992,0.099,0.0972,0.095,0.0951,0.0959,0.0934,0.092,0.0949,0.0949,0.0948,0.0948,0.0948,0,0.0657,0.0692,0.0714,0.0726,0.0769,0.0799,0.0831,0.0886,0.0926,0.0983,0.1018,0.1042,0.1068,0.1051,0.1044,0.102,0.1043,0.0995,0.0994,0.0996,0.0953,0.0949,0.0989,0.0989,0.0988,0.0988,0.0988,0,0.0648,0.0664,0.0708,0.0719,0.0756,0.0797,0.0849,0.0891,0.0955,0.1005,0.1044,0.1086,0.1085,0.1106,0.1073,0.1074,0.1075,0.1017,0.1009,0.0967,0.0964,0.0956,0.0952,0.099,0.0989,0.0989,0.0989,0,0.0622,0.0651,0.0678,0.0729,0.0749,0.0782,0.0863,0.0897,0.0969,0.1037,0.1064,0.1132,0.1178,0.118,0.1162,0.1124,0.1102,0.1094,0.1087,0.1075,0.1044,0.1041,0.1087,0.1088,0.1089,0.1089,0.109,0,0.0606,0.0618,0.0682,0.0707,0.0734,0.0787,0.0827,0.0902,0.0944,0.1063,0.1091,0.1175,0.1215,0.1212,0.1213,0.119,0.1161,0.1143,0.1058,0.1068,0.1056,0.1052,0.1047,0.1091,0.1092,0.1092,0.1092,0,0.0574,0.061,0.0638,0.0691,0.0734,0.0774,0.0837,0.0864,0.0961,0.1031,0.1104,0.114,0.1204,0.1211,0.1226,0.119,0.1149,0.1151,0.1147,0.1066,0.1074,0.106,0.1055,0.1095,0.1094,0.1094,0.1094,0,0.0555,0.0572,0.0621,0.0666,0.0717,0.0748,0.0785,0.0841,0.0894,0.1021,0.105,0.1136,0.1205,0.1215,0.1219,0.1215,0.117,0.1095,0.1093,0.109,0.1076,0.1085,0.1119,0,0,0,0,0,0.0526,0.0547,0.0588,0.0635,0.0686,0.0715,0.0785,0.0823,0.0915,0.095,0.0999,0.1059,0.1111,0.1151,0.1143,0.1211,0.1164,0.1196,0.1074,0.1111,0.1108,0.1093,0,0,0,0,0,0,0.0507,0.0544,0.0572,0.06,0.0624,0.067,0.0712,0.0773,0.0795,0.0895,0.0924,0.1006,0.106,0.1106,0.1125,0.1138,0.1042,0.1252,0.125,0.1113,0.111,0.1107,0.1091,0,0,0,0,0]},{"header":{"parameterUnit":"m.s-1","parameterCategory":2,"la1":30.2991,"la2":30.254,"lo1":-89.0895,"lo2":-89.0444,"dy":0.0017,"dx":0.0017,"nx":28,"ny":28,"refTime":"2024-07-03T09:00:00:Z","depth":"4","parameterNumber":3,"parameterNumberName":"V-component_of_CURRENTS"},"data":[0,0,0,0,0,0,0,0,0,0,0,0,0,0,0,0,0,0,0,0,0,0,0,0,0,0,0,0,0,0,0,0,0,0,0,0,0,0,0,0,0,0,0,0,0,0,0,0,0,0,0,0,0,0,0,0,0,0,-0.0152,-0.0152,0,-0.0205,-0.0206,-0.0207,-0.0263,-0.0264,-0.0265,-0.0266,-0.0391,-0.0394,-0.0396,0,0,0,0,0,0,0,0,0,0,0,0,0,-0.0096,-0.0097,-0.0152,-0.0152,-0.0153,-0.0205,-0.0206,-0.0207,-0.0263,-0.0264,-0.0265,-0.0266,-0.039,-0.0393,-0.0397,0,0,0,0,0,0,0,0,0,0,0,0,0,-0.0132,-0.0097,-0.0152,-0.0187,-0.0191,-0.0205,-0.0206,-0.0207,-0.0263,-0.0264,-0.0265,-0.0266,-0.0389,-0.0393,-0.0397,-0.0399,0,0,-0.0409,-0.0411,0,0,0,0,0,0,0,0,-0.013,-0.0134,-0.0181,-0.0185,-0.0189,-0.0228,-0.0232,-0.0275,-0.0263,-0.0236,-0.0266,-0.0267,-0.0342,-0.035,-0.0357,-0.0405,-0.041,-0.041,-0.0412,-0.0414,-0.0415,0,0,0,0,0,0,0,-0.0128,-0.0132,-0.0173,-0.0182,-0.0186,-0.0199,-0.0206,-0.024,-0.0284,-0.0239,-0.0243,-0.0247,-0.0345,-0.0353,-0.0361,-0.0412,-0.0409,-0.0413,-0.0415,-0.0417,-0.0561,-0.0562,0,0,0,0,0,0,-0.0119,-0.013,-0.0172,-0.0175,-0.0161,-0.0199,-0.0207,-0.0215,-0.0282,-0.0293,-0.0246,-0.025,-0.0346,-0.0356,-0.0366,-0.0449,-0.0414,-0.0417,-0.042,-0.056,-0.0561,-0.0563,0,0,0,0,0,0,-0.0117,-0.0122,-0.017,-0.0153,-0.016,-0.0199,-0.0208,-0.0215,-0.0241,-0.0287,-0.03,-0.0266,-0.0347,-0.036,-0.0411,-0.0451,-0.0419,-0.0423,-0.0558,-0.056,-0.0562,-0.0566,0,0,0,0,0,0,-0.0116,-0.0121,-0.0127,-0.0153,-0.0161,-0.0189,-0.0207,-0.0216,-0.0241,-0.0246,-0.0308,-0.032,-0.0349,-0.0405,-0.0415,-0.0456,-0.0426,-0.0556,-0.0559,-0.0561,-0.0564,-0.0568,-0.0571,0,0,0,0,0,-0.0114,-0.0119,-0.0127,-0.0132,-0.0166,-0.0189,-0.0195,-0.0227,-0.0241,-0.0253,-0.0295,-0.0319,-0.0431,-0.0409,-0.042,-0.0464,-0.0555,-0.0558,-0.0561,-0.0562,-0.0567,-0.0571,0,0,0,0,0,0,-0.0096,-0.0126,-0.0135,-0.0149,-0.0171,-0.0199,-0.0213,-0.023,-0.0271,-0.0284,-0.0326,-0.034,-0.0408,-0.0428,-0.0403,-0.0515,-0.0501,-0.0507,-0.0498,-0.0503,-0.0507,-0.0481,-0.0429,0,0,0,0,0,-0.0092,-0.0108,-0.0133,-0.0144,-0.0156,-0.0184,-0.0198,-0.0221,-0.0256,-0.0276,-0.0321,-0.0373,-0.0426,-0.0457,-0.0505,-0.0552,-0.0553,-0.0592,-0.0595,-0.0598,-0.0586,-0.0609,-0.0613,-0.0574,-0.0574,-0.0573,0,0,-0.0088,-0.0106,-0.0115,-0.0142,-0.0162,-0.0182,-0.0197,-0.0225,-0.025,-0.0283,-0.034,-0.0389,-0.0442,-0.0505,-0.0538,-0.0529,-0.0614,-0.0602,-0.0604,-0.059,-0.0613,-0.0617,-0.062,-0.0576,-0.0575,-0.0575,0,0,-0.0098,-0.0104,-0.0128,-0.0141,-0.0173,-0.0187,-0.0197,-0.0238,-0.0267,-0.0314,-0.0358,-0.0415,-0.0491,-0.0537,-0.0568,-0.0616,-0.0634,-0.0652,-0.0649,-0.0672,-0.0675,-0.0677,-0.0691,-0.0695,-0.0652,-0.0652,-0.0652,0,-0.0097,-0.0121,-0.0137,-0.0159,-0.0166,-0.019,-0.021,-0.0239,-0.0295,-0.0318,-0.0337,-0.0455,-0.0502,-0.0573,-0.0599,-0.0624,-0.0636,-0.0626,-0.0674,-0.0677,-0.0679,-0.0692,-0.0696,-0.0653,-0.0653,-0.0653,-0.0653,0,-0.0131,-0.014,-0.0151,-0.0184,-0.0194,-0.0212,-0.0242,-0.0272,-0.0305,-0.0335,-0.0415,-0.0476,-0.0543,-0.0582,-0.0606,-0.0665,-0.0669,-0.0675,-0.0655,-0.0683,-0.0696,-0.07,-0.0654,-0.0653,-0.0653,-0.0653,0,0,-0.0166,-0.0174,-0.0182,-0.0177,-0.0205,-0.0211,-0.025,-0.0285,-0.0307,-0.0375,-0.0413,-0.0513,-0.0547,-0.0583,-0.0636,-0.066,-0.0696,-0.0677,-0.0678,-0.0675,-0.0746,-0.0701,-0.0701,-0.0714,-0.0715,-0.0715,-0.0751,0,-0.0194,-0.0209,-0.0219,-0.0225,-0.0224,-0.0239,-0.0263,-0.0295,-0.0333,-0.0376,-0.0444,-0.0504,-0.0549,-0.059,-0.0625,-0.0683,-0.0706,-0.0686,-0.0732,-0.0733,-0.0677,-0.0704,-0.0717,-0.0753,-0.0754,-0.0755,-0.0755,0,-0.0237,-0.0232,-0.0234,-0.0215,-0.0221,-0.0233,-0.0251,-0.0279,-0.0336,-0.0368,-0.0434,-0.0485,-0.056,-0.058,-0.0675,-0.0664,-0.0703,-0.0734,-0.0736,-0.0689,-0.0695,-0.0721,-0.0762,-0.0761,-0.0761,-0.076,-0.076,0,-0.0228,-0.0241,-0.0229,-0.0224,-0.0219,-0.023,-0.0243,-0.0282,-0.0296,-0.0366,-0.0381,-0.0478,-0.0522,-0.0592,-0.0671,-0.0679,-0.0748,-0.0764,-0.0757,-0.0754,-0.078,-0.0777,-0.0808,-0.0808,-0.0807,-0.0807,-0.0807,0,-0.0231,-0.0221,-0.0222,-0.0205,-0.0197,-0.0213,-0.0218,-0.0246,-0.0286,-0.0289,-0.0379,-0.04,-0.0525,-0.0584,-0.0658,-0.0716,-0.0742,-0.0751,-0.0759,-0.0783,-0.0781,-0.0782,-0.0779,-0.0809,-0.0808,-0.0808,-0.0808,0,-0.0198,-0.0203,-0.0178,-0.0178,-0.0179,-0.0172,-0.018,-0.0188,-0.0233,-0.024,-0.026,-0.0346,-0.0423,-0.0532,-0.0637,-0.0683,-0.075,-0.076,-0.077,-0.0778,-0.0745,-0.0742,-0.0759,-0.0757,-0.0756,-0.0755,-0.0754,0,-0.0171,-0.0159,-0.0143,-0.013,-0.0126,-0.0124,-0.0122,-0.0157,-0.016,-0.0194,-0.0192,-0.027,-0.0332,-0.0436,-0.0568,-0.0699,-0.0712,-0.0746,-0.0755,-0.0733,-0.074,-0.0738,-0.0737,-0.0753,-0.0752,-0.0752,-0.0752,0,-0.0117,-0.012,-0.0098,-0.0074,-0.0064,-0.0044,-0.0048,-0.0035,-0.0069,-0.0105,-0.0108,-0.0182,-0.0261,-0.0389,-0.0492,-0.0589,-0.0729,-0.0735,-0.0738,-0.0747,-0.0726,-0.0734,-0.0733,-0.0748,-0.0748,-0.0749,-0.0749,0,-0.0083,-0.0061,-0.0048,-0.0021,-0.0002,0.0024,0.0023,0.0025,0.0023,-0.0017,-0.0011,-0.0115,-0.0191,-0.033,-0.0426,-0.0521,-0.0547,-0.0568,-0.0581,-0.0587,-0.0532,-0.048,-0.0427,0,0,0,0,0,-0.0055,-0.0035,-0.0001,0.003,0.0051,0.0061,0.0066,0.0056,0.0035,0.0058,0.0027,-0.004,-0.0176,-0.0254,-0.0334,-0.0429,-0.0584,-0.0527,-0.062,-0.0727,-0.0731,-0.0692,0,0,0,0,0,0,-0.0044,-0.0014,0.0008,0.0064,0.0092,0.0115,0.0125,0.0113,0.0119,0.0091,0.0019,-0.0037,-0.0182,-0.0116,-0.0324,-0.0361,-0.0424,-0.0609,-0.061,-0.0724,-0.0728,-0.0732,-0.0694,0,0,0,0,0]}]]